Find Kosmos-1727

NORAD ID: 16510 Int'l Des: 1986-008 Owner: VMF Country: SU operational
LEOCIRCULARPOLAR

实时位置

正在加载3D地球...

关于 Kosmos-1727

正在加载描述...

即将过境

Passes for default location (London). Set your location on the main map for personalized predictions.

高度历史

Loading altitude history...

两行轨道根数

1 16510U 86008A 26105.22441964 .00000045 00000-0 30630-4 0 9996
2 16510 82.9523 19.5602 0039075 49.1819 102.8938 13.74677640 17030
Epoch: Apr 15, 2026 • Age: 4 hours

当前状态

高度 1034.9 km
速度 7.32 km/s
星下点 -63.98°S, 129.47°W
发射日期 Jan 23, 1986
运行时间 40.2 years
类型 other

技术详情

分类 Payload
质量 800.00 kg
干质量 800.00 kg
总质量 800.00 kg
长度 5.00 m
直径 2.10 m
跨度 17.00 m
形状 Cyl + Ant
制造商 OAZ
平台类型 KAUR-1 11F643
阶段状态 In Orbit
所有者/国家 VMF/SU

Most Searched